Weather History for Fort Polk, LA

Change the Weather History Date:

Thursday, February 14, 2013

  Actual Average (KPOE) Record (KPOE)
Temperature  
Mean Temperature 48 °F -  
Max Temperature 63 °F 62 °F 75 °F (2000)
Min Temperature 32 °F 43 °F 30 °F (2006)
Degree Days  
Heating Degree Days 18    
Moisture  
Dew Point 34 °F    
Average Humidity 73    
Maximum Humidity 93    
Minimum Humidity 31    
Precipitation  
Precipitation 0.01 in - - ()
Sea Level Pressure  
Sea Level Pressure 30.09 in    
Wind  
Wind Speed 1 mph (NNE)    
Max Wind Speed 6 mph    
Max Gust Speed -    
Visibility 8 miles    
Events      
Averages and records for this station are not official NWS values.
T = Trace of Precipitation, MM = Missing Value Source: NWS Daily Summary

Daily Weather History Graph

Daily Weather History Graph

Search for Another Location

Airport:

Trip Planner

Search our weather history database for the weather conditions in past years. The results will help you decide how hot, cold, wet, or windy it might be!

Date:

Astronomy

Feb. 14, 2013 Rise Set
Actual Time 6:55 AM CST 5:59 PM CST
Civil Twilight 6:30 AM CST 6:24 PM CST
Nautical Twilight 6:01 AM CST 6:53 PM CST
Astronomical Twilight 5:33 AM CST 7:21 PM CST
Moon 9:19 AM CST (2/14) 10:39 PM CST (2/14)
Length of Visible Light 11h 54m
Length of Day
11h 04m
Waxing Crescent, 22% of the Moon is Illuminated
Feb 14
Waxing Crescent
Feb 17
First Quarter
Feb 25
Full
Mar 4
Last Quarter
Mar 11
New

Hourly Weather History & Observations

Time (CST) Temp. Dew Point Humidity Pressure Visibility Wind Dir Wind Speed Gust Speed Precip Events Conditions
12:56 AM 35.1 °F 33.1 °F 92% 30.08 in 6.0 mi Calm Calm - N/A   Clear
1:47 AM 33.8 °F 32.0 °F 93% 30.07 in 2.5 mi Calm Calm - N/A   Clear
1:54 AM 33.8 °F 32.0 °F 93% 30.07 in 3.0 mi Calm Calm - N/A   Clear
1:56 AM 34.0 °F 32.0 °F 92% 30.08 in 3.0 mi Calm Calm - N/A   Clear
2:56 AM 33.1 °F 30.9 °F 92% 30.08 in 5.0 mi Calm Calm - N/A   Clear
3:56 AM 32.0 °F 30.0 °F 92% 30.09 in 5.0 mi Calm Calm - N/A   Clear
4:56 AM 32.0 °F 30.0 °F 92% 30.11 in 6.0 mi Calm Calm - N/A   Clear
5:56 AM 32.0 °F 30.0 °F 92% 30.11 in 6.0 mi Calm Calm - N/A   Clear
6:56 AM 32.0 °F 30.0 °F 92% 30.12 in 4.0 mi Calm Calm - N/A   Clear
7:56 AM 36.0 °F 34.0 °F 93% 30.12 in 4.0 mi Calm Calm - 0.01 in   Clear
8:56 AM 46.9 °F 39.0 °F 74% 30.14 in 10.0 mi Calm Calm - N/A   Clear
9:56 AM 50.0 °F 36.0 °F 59% 30.14 in 10.0 mi Calm Calm - N/A   Clear
10:56 AM 55.9 °F 34.0 °F 44% 30.14 in 10.0 mi Variable 3.5 mph - N/A   Clear
11:56 AM 57.9 °F 33.1 °F 39% 30.13 in 10.0 mi Calm Calm - N/A   Clear
12:56 PM 60.1 °F 30.9 °F 33% 30.09 in 10.0 mi Variable 3.5 mph - N/A   Clear
1:56 PM 62.1 °F 33.1 °F 34% 30.07 in 10.0 mi NE 5.8 mph - N/A   Clear
2:56 PM 62.1 °F 33.1 °F 34% 30.05 in 10.0 mi NE 3.5 mph - N/A   Clear
3:56 PM 63.0 °F 32.0 °F 31% 30.05 in 10.0 mi West 4.6 mph - N/A   Clear
4:56 PM 63.0 °F 32.0 °F 31% 30.05 in 10.0 mi Calm Calm - N/A   Clear
5:56 PM 54.0 °F 39.9 °F 59% 30.06 in 10.0 mi Calm Calm - N/A   Clear
6:56 PM 48.0 °F 41.0 °F 77% 30.08 in 10.0 mi Calm Calm - N/A   Clear
7:56 PM 44.1 °F 41.0 °F 89% 30.09 in 10.0 mi Calm Calm - N/A   Clear
8:56 PM 42.1 °F 39.0 °F 89% 30.09 in 10.0 mi Calm Calm - N/A   Clear
9:56 PM 41.0 °F 37.9 °F 89% 30.11 in 10.0 mi Calm Calm - N/A   Clear
10:56 PM 39.9 °F 37.0 °F 89% 30.10 in 10.0 mi Calm Calm - N/A   Clear
11:56 PM 39.0 °F 37.0 °F 93% 30.09 in 10.0 mi Calm Calm - N/A   Clear